SCP
0 0 0 0 0 0 0 0 0 0 0 1 1 1 1 2 3 3 3 2 3 3 4 5 5 5 5 4 3 3 2 2 2 2 2 2 2 1 1 2 2 2 2 2
0 0 0 0 0 0 0 0 0 0 0 1 1 1 1 2 3 4 3 3 3 3 5 7 7 7 6 5 4 3 3 3 3 2 2 2 1 1 1 2 2 2 2 2
0 0 0 0 0 0 0 0 1 1 0 0 0 1 1 2 3 4 4 3 3 3 5 8 9 10 8 5 4 3 3 3 3 3 2 2 1 2 2 2 2 3 2 2
0 0 0 0 0 0 0 0 0 0 0 0 0 1 1 2 3 4 4 3 3 3 4 7 10 10 7 5 4 4 4 4 3 3 3 2 2 2 2 2 3 3 3 3
0 0 0 0 0 0 0 0 0 0 0 0 0 0 1 2 3 3 4 4 4 4 5 7 9 9 7 6 5 5 4 4 4 4 4 3 3 2 2 2 3 3 3 3
0 0 0 0 0 0 0 0 0 0 0 0 0 0 1 1 2 3 4 5 5 5 6 6 7 8 8 8 8 7 5 5 5 5 5 4 3 3 3 3 3 3 3 3
0 0 0 0 0 0 0 0 0 0 0 0 0 0 1 1 2 4 6 7 7 7 6 5 6 9 11 12 11 8 6 5 6 6 6 5 4 4 3 3 3 3 3 2
0 0 0 0 0 0 0 0 0 0 0 0 0 0 1 1 3 6 9 9 8 8 7 6 6 9 12 12 11 8 7 7 7 8 7 6 5 4 4 4 3 3 2 2
0 0 0 0 0 0 0 0 0 0 0 0 0 0 1 2 5 8 10 10 9 8 8 7 6 7 8 8 8 7 7 8 9 9 8 7 6 5 5 4 3 2 2 2
0 0 0 0 0 0 0 0 0 0 0 0 0 0 1 2 5 7 9 9 8 8 8 7 6 6 5 5 5 6 7 9 10 10 9 7 6 5 5 4 3 2 2 2
0 0 0 0 0 0 0 0 0 0 0 0 0 0 1 2 4 6 6 7 7 7 7 7 6 6 6 6 5 6 9 10 10 9 8 7 6 4 3 2 2 1 1 2
0 0 0 0 0 0 0 0 0 0 0 0 0 1 1 3 5 6 6 6 6 6 6 6 6 6 7 7 7 9 11 11 9 8 7 6 5 3 2 2 1 1 1 1
0 0 0 0 0 0 0 1 1 0 0 0 1 1 2 4 6 7 7 7 8 8 7 6 6 6 7 8 9 10 11 10 8 7 6 5 4 3 2 2 1 1 1 2
0 0 0 0 0 0 0 1 1 1 1 1 1 1 3 5 7 7 7 8 9 9 8 7 6 6 6 8 9 9 8 7 7 6 6 5 4 3 2 2 2 2 2 2
0 0 0 0 0 0 0 1 1 1 1 1 1 2 4 6 7 7 8 9 9 9 8 9 10 8 6 6 7 6 6 6 6 6 6 6 5 4 3 3 2 3 3 3
0 0 0 0 0 0 0 1 1 2 1 1 2 2 4 6 8 9 10 11 11 10 10 10 11 8 6 6 5 5 5 6 6 7 7 6 7 6 5 4 3 3 3 3
0 0 0 0 0 0 0 1 2 2 1 1 2 2 4 7 9 10 11 12 12 12 10 9 7 6 5 5 5 5 5 6 6 7 7 6 7 7 6 5 4 3 3 3
0 0 0 0 0 0 1 1 2 2 2 2 3 3 5 7 10 11 12 11 11 10 9 6 5 4 4 5 5 5 5 5 6 6 6 6 6 7 7 6 4 4 4 4
0 0 0 0 0 0 1 2 2 2 2 3 4 5 6 8 11 12 10 9 8 7 5 5 4 3 3 4 18 27 19 5 5 4 4 5 7 7 7 6 5 4 4 5
0 1 0 0 0 0 1 2 2 1 2 4 6 6 6 7 9 10 9 7 6 5 4 4 3 3 3 3 27 50 27 4 4 3 4 6 7 8 8 7 6 6 5 5
0 1 0 0 0 0 1 2 2 2 2 4 5 5 6 6 7 8 8 8 6 5 5 4 4 3 3 3 17 27 17 3 3 3 4 6 8 9 9 8 8 7 6 5
0 0 0 0 0 0 1 1 1 2 2 4 5 5 7 8 8 8 8 8 7 6 5 4 4 3 3 4 4 4 3 3 2 3 4 6 7 8 9 9 9 8 7 6
0 0 0 0 0 1 1 1 1 2 3 4 5 6 8 9 9 9 8 7 6 6 5 5 4 4 4 5 5 5 4 3 2 3 4 5 6 8 10 11 10 8 8 7
0 1 1 1 1 1 1 1 2 2 4 5 5 6 7 9 9 8 7 5 5 5 5 5 5 5 5 5 5 6 5 4 3 4 5 6 7 8 9 9 8 7 7 7
1 1 1 1 2 2 1 2 2 3 5 5 5 5 6 8 9 7 6 4 4 4 4 4 4 4 5 5 5 6 5 4 4 5 6 8 8 7 7 6 4 4 4 4
1 1 1 1 2 2 1 2 3 4 4 4 4 4 6 8 8 7 5 4 4 3 4 4 4 4 4 4 5 6 5 4 4 6 7 9 9 7 5 3 2 1 2 1
Wind_Speed
1 3 3 7 7 7 3 3 5 7 6 3 6 8 10 11 10 12 13 13 14 15 13 13 13 13 12 10 11 10 9 8 6 4 3 3 3 2 3 3 4 5 4 4
2 5 10 7 5 5 5 5 6 6 5 2 5 5 7 9 13 15 17 16 15 12 10 12 12 12 13 12 11 10 10 9 8 5 4 3 3 2 3 3 4 5 5 5
7 7 6 7 7 6 6 6 6 4 4 3 4 1 3 4 6 9 12 13 15 17 17 15 14 13 13 12 12 11 10 9 8 6 3 2 2 1 1 2 3 4 5 5
6 8 6 6 8 6 6 6 4 1 2 2 3 2 7 5 4 7 10 11 13 15 14 14 14 14 14 14 12 11 10 9 8 8 6 5 4 4 4 3 3 3 4 5
7 5 6 7 9 6 7 4 1 2 3 1 1 3 7 2 5 8 9 13 14 14 15 15 15 15 14 13 11 10 10 9 8 8 8 6 4 4 2 2 4 4 4 4
8 5 5 8 6 5 3 4 6 6 6 1 4 3 6 5 8 8 8 10 12 13 13 12 12 11 9 10 10 10 10 9 9 8 8 7 6 5 4 4 4 4 3 3
5 6 4 3 2 1 5 7 5 5 4 5 4 2 9 9 7 10 11 11 12 12 12 12 11 11 11 12 11 11 11 10 9 9 8 8 7 7 7 6 5 4 3 3
3 6 5 4 6 5 4 10 9 5 4 5 3 4 8 6 4 6 8 9 10 10 10 11 12 12 12 12 12 11 12 10 10 10 9 7 7 5 5 5 5 5 4 4
6 6 5 5 5 8 5 4 9 8 2 0 4 5 6 2 3 3 6 8 8 9 10 9 10 10 10 10 11 12 12 10 10 10 8 7 7 6 5 5 4 4 4 4
5 4 5 3 2 2 8 7 6 6 4 1 4 3 4 2 1 3 6 7 7 8 8 7 8 8 7 8 8 9 10 10 9 9 8 7 6 6 5 5 5 4 4 4
5 3 5 1 4 6 3 4 6 5 6 6 2 6 5 5 4 5 6 7 8 9 9 7 6 5 4 5 6 7 8 8 8 8 7 7 6 5 5 5 5 4 4 4
5 6 2 5 5 7 7 7 8 6 3 5 4 7 5 2 4 6 6 6 7 7 7 7 6 5 4 4 6 7 7 7 8 8 7 6 5 5 5 5 4 4 4 3
6 6 2 5 6 3 1 3 5 7 5 4 4 6 4 2 5 5 7 7 8 8 7 7 6 4 4 4 5 6 6 7 7 7 6 6 5 5 5 5 4 3 3 3
7 6 7 7 6 2 2 2 3 7 5 3 5 5 2 2 4 3 5 7 7 7 7 7 6 4 3 3 4 5 6 6 7 6 6 6 5 5 5 5 4 4 3 3
7 4 3 3 2 1 1 3 2 4 7 7 6 6 5 5 5 4 5 7 8 6 6 6 5 4 3 3 3 4 5 5 6 7 6 6 5 5 4 4 4 3 3 3
5 4 2 2 3 2 3 3 2 3 4 5 5 3 4 2 4 4 5 7 7 6 6 5 5 5 4 4 3 4 4 4 5 6 5 4 4 4 4 4 3 3 3 2
4 5 4 1 3 4 3 3 2 2 2 6 5 5 3 4 4 4 5 6 6 6 5 6 5 4 3 3 4 4 3 3 4 4 4 3 4 4 4 4 4 3 3 3
5 5 4 2 2 3 8 3 2 3 0 2 5 5 7 7 5 3 3 6 6 5 4 4 4 3 3 3 3 3 3 4 4 4 4 4 4 4 4 4 4 3 3 3
6 7 4 3 2 4 5 3 0 3 1 1 5 6 6 7 8 5 3 3 5 5 5 4 4 5 4 4 3 4 3 3 3 3 3 3 4 4 4 4 3 3 3 3
5 6 6 4 3 5 6 5 1 6 1 2 3 6 6 6 5 3 1 4 5 4 4 5 5 6 6 4 4 5 4 3 3 2 2 3 3 4 4 4 4 3 4 4
3 3 4 4 3 6 6 6 3 4 5 2 3 4 5 4 5 5 5 5 5 5 5 6 6 6 4 3 5 5 4 3 2 2 3 3 3 4 4 4 4 5 5 5
4 4 4 5 4 7 5 3 2 4 3 3 4 4 5 6 7 6 6 7 7 6 6 6 6 5 3 3 5 5 3 2 2 3 3 3 3 3 4 5 5 5 6 6
3 5 5 6 7 5 1 2 1 3 4 3 4 5 7 7 7 7 6 5 6 6 5 4 5 5 3 3 4 4 2 2 3 4 4 4 4 4 4 5 5 4 4 5
2 1 2 1 1 1 1 2 3 3 4 4 5 6 7 7 6 6 5 5 5 4 4 4 5 4 3 2 3 2 2 3 4 5 4 4 6 6 5 4 4 4 3 4
2 1 1 0 1 2 3 2 2 3 4 6 6 5 6 7 6 5 4 3 4 4 4 4 4 4 2 2 2 2 2 4 5 5 5 5 5 6 6 6 5 4 3 2
1 3 3 4 4 3 3 2 2 3 3 4 6 5 4 5 5 5 4 3 4 4 4 4 4 4 3 3 3 2 2 4 5 5 5 4 4 5 5 6 6 11 7 8
Wind_Direction
189 95 216 223 204 203 227 268 276 267 263 172 176 182 191 185 182 180 179 181 184 188 184 177 175 173 168 167 167 168 166 168 160 154 156 155 169 176 178 183 178 170 173 167
46 240 229 226 239 239 246 265 276 289 287 174 176 198 198 181 190 183 180 184 186 179 174 177 176 175 174 173 174 172 172 172 170 171 167 164 165 181 185 185 184 181 183 182
200 237 221 223 247 252 252 228 237 246 321 21 109 333 260 219 202 193 187 185 182 178 179 179 178 179 173 175 178 181 180 175 173 166 150 138 116 111 160 184 191 198 194 193
239 247 238 221 236 222 257 243 218 184 88 284 132 200 272 235 221 204 196 188 190 183 179 179 178 178 180 182 181 179 180 176 172 165 166 173 178 190 203 193 192 202 205 199
244 230 217 222 228 208 225 242 191 141 129 21 19 142 271 257 220 219 202 191 191 184 178 180 183 184 183 180 178 177 176 177 175 174 176 183 189 195 192 184 188 202 212 209
247 258 217 215 222 204 199 45 34 48 70 19 251 159 261 236 212 205 199 186 180 178 176 179 180 174 174 175 176 176 177 182 181 179 182 189 188 184 179 191 198 205 208 214
290 284 259 203 174 327 95 86 42 12 20 254 260 174 244 242 207 189 184 180 173 174 173 174 171 170 175 177 178 179 179 185 186 186 190 193 190 185 191 195 198 197 198 210
216 274 249 198 171 177 156 131 149 172 203 278 318 226 255 252 203 170 167 169 163 163 167 172 176 176 178 179 179 179 183 186 185 190 194 191 188 189 197 196 193 199 204 210
192 246 265 215 176 150 145 158 162 134 158 309 295 293 317 8 85 115 133 140 148 156 161 169 173 173 177 180 183 185 185 185 187 189 189 188 187 189 194 195 193 200 206 207
178 242 271 237 126 147 152 150 98 111 141 233 297 285 251 271 123 110 126 141 141 150 158 164 168 172 177 181 189 186 184 185 187 189 191 193 193 194 193 189 195 194 200 204
171 182 297 19 160 185 146 123 114 125 149 150 226 276 249 216 178 142 141 148 147 147 154 154 147 153 161 167 178 180 176 177 179 183 185 188 190 190 187 188 193 190 190 193
170 134 231 260 244 179 154 161 141 147 203 155 156 268 297 176 135 132 126 123 126 130 133 134 129 130 140 160 172 169 170 173 179 178 177 184 183 180 185 192 192 189 192 196
144 118 93 346 344 357 130 152 146 138 126 141 154 256 308 70 86 103 115 111 115 113 114 116 113 129 147 156 159 158 162 169 170 166 170 175 174 177 185 187 183 181 187 189
117 111 149 179 203 228 285 270 142 124 142 179 197 219 293 75 91 82 99 111 115 116 111 116 120 126 148 151 147 149 158 161 159 159 165 172 181 184 184 183 179 180 173 164
96 115 151 182 192 129 234 265 225 166 171 172 203 193 214 192 158 136 115 115 115 113 109 111 114 116 116 113 125 138 148 153 155 156 165 178 183 177 169 167 168 164 160 171
77 109 90 7 8 20 333 301 234 190 166 159 153 196 227 159 117 105 110 120 125 124 118 111 106 109 113 117 118 120 134 146 145 154 165 168 165 163 161 157 149 143 149 164
73 97 92 313 331 39 303 263 204 207 188 155 178 203 165 118 120 142 150 138 135 130 124 118 117 123 127 137 135 132 143 137 134 141 150 156 156 158 159 151 142 145 154 152
109 95 108 106 61 225 243 251 156 149 178 146 143 153 152 146 133 111 133 136 135 135 130 122 116 113 108 108 106 120 127 127 130 136 149 153 149 158 154 144 145 152 145 143
128 123 109 113 157 273 291 304 37 127 13 40 130 132 132 122 84 45 26 104 133 142 135 128 123 114 99 93 100 103 102 111 113 123 138 148 151 150 144 147 149 147 134 130
92 105 115 124 153 223 255 288 291 101 31 333 113 138 140 121 120 201 179 104 101 104 106 108 102 95 87 79 91 92 89 95 108 128 135 136 144 147 148 154 144 127 122 122
74 83 130 149 194 258 265 298 36 123 214 238 114 122 130 141 168 169 132 105 102 101 99 99 94 91 89 85 92 90 85 90 114 112 113 111 127 135 138 130 124 121 117 112
163 157 176 153 184 247 299 9 110 199 194 144 120 114 108 113 117 116 108 103 100 95 88 92 93 86 80 85 96 92 79 69 85 95 97 100 109 120 121 119 115 115 119 113
171 181 181 181 203 229 263 128 184 148 124 122 120 114 111 108 113 110 102 102 101 102 94 90 100 93 75 76 94 101 94 74 89 92 95 90 80 75 90 107 115 113 113 116
314 68 107 85 272 280 35 61 60 95 111 115 118 122 117 114 115 113 115 114 108 101 95 92 97 90 68 60 80 102 100 97 103 101 98 95 92 81 72 73 83 102 110 118
267 29 65 316 270 9 14 41 66 63 82 97 98 103 115 120 122 117 117 119 116 110 107 102 104 103 87 74 70 82 97 106 108 105 104 100 98 100 87 72 57 73 70 122
232 164 166 214 225 182 233 243 104 96 98 116 113 99 101 120 127 128 126 128 121 118 115 106 100 100 91 80 70 71 90 106 114 113 110 107 106 104 103 100 77 51 62 69